| time (UTC) | temp F | wind direction | speed MPH | gust MPH | rain 1hr in | rain 24hr in | rain mn in | humidity % | barometer mb |
| 20260901192130 | 54 | 263 | 0.0 | 0.0 | 0.00 | 0.11 | 0.00 | 91 | 1016.4 |
| 20260901191616 | 54 | 263 | 0.0 | 2.0 | 0.00 | 0.11 | 0.00 | 91 | 1016.4 |
| 20260901190447 | 54 | 263 | 0.0 | 0.0 | 0.00 | 0.11 | 0.00 | 91 | 1016.3 |
| 20260901185942 | 55 | 263 | 0.0 | 0.0 | 0.00 | 0.11 | 0.00 | 91 | 1016.3 |
| 20260901185438 | 54 | 263 | 0.0 | 0.0 | 0.00 | 0.11 | 0.00 | 91 | 1016.4 |
| 20260901184935 | 54 | 263 | 0.0 | 2.0 | 0.00 | 0.11 | 0.00 | 91 | 1016.4 |
| 20260901184416 | 54 | 263 | 0.0 | 0.0 | 0.00 | 0.11 | 0.00 | 91 | 1016.4 |
| 20260901183305 | 54 | 263 | 0.0 | 0.0 | 0.00 | 0.11 | 0.00 | 91 | 1016.2 |
| 20260901182137 | 54 | 263 | 0.0 | 0.0 | 0.00 | 0.11 | 0.00 | 91 | 1016.1 |
| 20260901181618 | 54 | 263 | 0.0 | 0.0 | 0.00 | 0.11 | 0.00 | 91 | 1016.1 |
| 20260901181107 | 54 | 263 | 0.0 | 0.0 | 0.00 | 0.11 | 0.00 | 91 | 1016.0 |
| 20260901175334 | 53 | 263 | 0.0 | 0.0 | 0.00 | 0.11 | 0.00 | 91 | 1016.0 |
| 20260901174820 | 53 | 263 | 0.0 | 0.0 | 0.00 | 0.11 | 0.00 | 91 | 1016.0 |
| 20260901174313 | 53 | 263 | 0.0 | 0.0 | 0.00 | 0.11 | 0.00 | 90 | 1016.1 |
| 20260901173816 | 53 | 263 | 0.0 | 0.0 | 0.00 | 0.11 | 0.00 | 90 | 1016.1 |
| 20260901172649 | 53 | 263 | 0.0 | 0.0 | 0.00 | 0.11 | 0.00 | 90 | 1016.3 |
| 20260901172157 | 53 | 263 | 0.0 | 0.0 | 0.00 | 0.11 | 0.00 | 90 | 1016.3 |
| 20260901171640 | 54 | 263 | 0.0 | 0.0 | 0.00 | 0.11 | 0.00 | 90 | 1016.3 |
| 20260901170506 | 54 | 263 | 0.0 | 0.0 | 0.00 | 0.11 | 0.00 | 90 | 1016.4 |
| 20260901165947 | 54 | 263 | 0.0 | 0.0 | 0.00 | 0.11 | 0.00 | 90 | 1016.4 |
| 20260901165439 | 54 | 263 | 0.0 | 0.0 | 0.00 | 0.11 | 0.00 | 90 | 1016.4 |
| 20260901164946 | 55 | 263 | 0.0 | 0.0 | 0.00 | 0.11 | 0.00 | 90 | 1016.4 |
| 20260901164432 | 55 | 263 | 0.0 | 0.0 | 0.00 | 0.11 | 0.00 | 90 | 1016.4 |
| 20260901163938 | 55 | 263 | 0.0 | 0.0 | 0.00 | 0.11 | 0.00 | 90 | 1016.6 |
| 20260901163430 | 55 | 263 | 0.0 | 0.0 | 0.00 | 0.11 | 0.00 | 90 | 1016.6 |
| 20260901161658 | 55 | 263 | 0.0 | 0.0 | 0.00 | 0.11 | 0.00 | 90 | 1016.6 |
| 20260901160541 | 55 | 263 | 0.0 | 0.0 | 0.00 | 0.11 | 0.00 | 89 | 1016.5 |
| 20260901160038 | 55 | 263 | 0.0 | 0.0 | 0.00 | 0.11 | 0.00 | 89 | 1016.5 |
| 20260901155537 | 56 | 263 | 0.0 | 0.0 | 0.00 | 0.11 | 0.00 | 90 | 1016.4 |
| 20260901153808 | 56 | 263 | 0.0 | 0.0 | 0.00 | 0.11 | 0.00 | 89 | 1016.4 |
| 20260901153249 | 56 | 263 | 0.0 | 0.0 | 0.00 | 0.11 | 0.00 | 89 | 1016.4 |
| 20260901152753 | 56 | 263 | 0.0 | 0.0 | 0.00 | 0.11 | 0.00 | 89 | 1016.4 |
| 20260901152236 | 56 | 263 | 0.0 | 0.0 | 0.00 | 0.11 | 0.00 | 89 | 1016.4 |
| 20260901151742 | 56 | 263 | 0.0 | 0.0 | 0.00 | 0.11 | 0.00 | 89 | 1016.4 |
| 20260901151238 | 56 | 263 | 0.0 | 0.0 | 0.00 | 0.11 | 0.00 | 89 | 1016.3 |
| 20260901150747 | 56 | 263 | 0.0 | 1.0 | 0.00 | 0.11 | 0.00 | 89 | 1016.3 |
| 20260901150244 | 57 | 263 | 0.0 | 0.0 | 0.00 | 0.11 | 0.00 | 89 | 1016.3 |
| 20260901145729 | 57 | 263 | 0.0 | 0.0 | 0.00 | 0.11 | 0.00 | 88 | 1016.3 |
| 20260901145225 | 57 | 263 | 0.0 | 0.0 | 0.00 | 0.11 | 0.00 | 88 | 1016.3 |
| 20260901144717 | 57 | 263 | 0.0 | 0.0 | 0.00 | 0.11 | 0.00 | 88 | 1016.3 |
| 20260901143544 | 58 | 263 | 0.0 | 0.0 | 0.00 | 0.11 | 0.00 | 88 | 1016.3 |
| 20260901143048 | 58 | 263 | 0.0 | 0.0 | 0.00 | 0.11 | 0.00 | 88 | 1016.3 |
| 20260901142533 | 58 | 263 | 0.0 | 1.0 | 0.00 | 0.11 | 0.11 | 88 | 1016.4 |
| 20260901142042 | 58 | 263 | 0.0 | 0.0 | 0.00 | 0.11 | 0.11 | 88 | 1016.4 |
| 20260901141551 | 58 | 263 | 0.0 | 0.0 | 0.00 | 0.11 | 0.11 | 88 | 1016.4 |
| 20260901141053 | 58 | 263 | 0.0 | 0.0 | 0.00 | 0.11 | 0.11 | 88 | 1016.4 |
| 20260901140600 | 59 | 263 | 0.0 | 0.0 | 0.00 | 0.11 | 0.11 | 88 | 1016.4 |
| 20260901140108 | 59 | 263 | 0.0 | 0.0 | 0.00 | 0.11 | 0.11 | 88 | 1016.4 |
| 20260901135605 | 59 | 263 | 0.0 | 0.0 | 0.00 | 0.11 | 0.11 | 88 | 1016.4 |
| 20260901134416 | 59 | 263 | 0.0 | 1.0 | 0.00 | 0.11 | 0.11 | 88 | 1016.4 |
| 20260901133907 | 59 | 263 | 0.0 | 0.0 | 0.00 | 0.11 | 0.11 | 88 | 1016.5 |
| 20260901133351 | 59 | 263 | 0.0 | 2.0 | 0.00 | 0.11 | 0.11 | 88 | 1016.5 |
| 20260901132844 | 59 | 263 | 1.0 | 0.0 | 0.00 | 0.11 | 0.11 | 88 | 1016.6 |
| 20260901132335 | 60 | 263 | 1.0 | 4.0 | 0.00 | 0.11 | 0.11 | 88 | 1016.6 |
| 20260901131816 | 60 | 263 | 1.0 | 4.0 | 0.00 | 0.11 | 0.11 | 88 | 1016.6 |
| 20260901131312 | 60 | 263 | 1.0 | 4.0 | 0.00 | 0.11 | 0.11 | 88 | 1016.4 |
| 20260901130153 | 60 | 263 | 0.0 | 3.0 | 0.00 | 0.11 | 0.11 | 87 | 1016.4 |
| 20260901125649 | 60 | 263 | 0.0 | 0.0 | 0.00 | 0.11 | 0.11 | 87 | 1016.6 |
| 20260901125151 | 60 | 263 | 0.0 | 0.0 | 0.00 | 0.11 | 0.11 | 87 | 1016.6 |
| 20260901124029 | 59 | 263 | 0.0 | 0.0 | 0.00 | 0.11 | 0.11 | 86 | 1016.7 |
| 20260901123533 | 60 | 263 | 0.0 | 0.0 | 0.00 | 0.11 | 0.11 | 86 | 1016.7 |
| 20260901123031 | 60 | 263 | 0.0 | 0.0 | 0.00 | 0.11 | 0.11 | 86 | 1016.7 |
| 20260901122540 | 60 | 263 | 0.0 | 0.0 | 0.00 | 0.11 | 0.11 | 86 | 1016.8 |
| 20260901122040 | 60 | 263 | 0.0 | 0.0 | 0.00 | 0.11 | 0.11 | 86 | 1016.8 |
| 20260901121538 | 60 | 263 | 0.0 | 0.0 | 0.00 | 0.11 | 0.11 | 86 | 1016.8 |
| 20260901120411 | 60 | 263 | 0.0 | 0.0 | 0.00 | 0.11 | 0.11 | 86 | 1016.5 |
| 20260901115249 | 60 | 263 | 0.0 | 0.0 | 0.00 | 0.11 | 0.11 | 86 | 1016.5 |
| 20260901114751 | 60 | 263 | 0.0 | 0.0 | 0.00 | 0.11 | 0.11 | 86 | 1016.5 |
| 20260901113022 | 60 | 263 | 0.0 | 0.0 | 0.00 | 0.11 | 0.11 | 85 | 1016.4 |
| 20260901112522 | 60 | 263 | 0.0 | 0.0 | 0.00 | 0.11 | 0.11 | 85 | 1016.4 |
| 20260901112026 | 60 | 263 | 0.0 | 0.0 | 0.00 | 0.11 | 0.11 | 85 | 1016.4 |
| 20260901111525 | 60 | 263 | 0.0 | 0.0 | 0.00 | 0.11 | 0.11 | 85 | 1016.4 |
| 20260901111025 | 60 | 263 | 0.0 | 0.0 | 0.00 | 0.11 | 0.11 | 85 | 1016.3 |
| 20260901110526 | 60 | 263 | 0.0 | 0.0 | 0.00 | 0.11 | 0.11 | 85 | 1016.3 |
| 20260901104734 | 60 | 263 | 0.0 | 0.0 | 0.00 | 0.11 | 0.11 | 85 | 1016.2 |
| 20260901103556 | 60 | 263 | 1.0 | 5.0 | 0.00 | 0.11 | 0.11 | 86 | 1016.3 |
| 20260901102444 | 60 | 263 | 1.0 | 5.0 | 0.00 | 0.11 | 0.11 | 86 | 1016.1 |
| 20260901101937 | 60 | 263 | 2.0 | 6.0 | 0.00 | 0.11 | 0.11 | 87 | 1016.1 |
| 20260901101418 | 60 | 263 | 2.0 | 6.0 | 0.00 | 0.11 | 0.11 | 87 | 1016.1 |
| 20260901100903 | 59 | 263 | 2.0 | 6.0 | 0.00 | 0.11 | 0.11 | 87 | 1015.9 |
| 20260901100357 | 59 | 263 | 0.0 | 6.0 | 0.00 | 0.11 | 0.11 | 88 | 1015.9 |
| 20260901095844 | 59 | 263 | 0.0 | 3.0 | 0.00 | 0.11 | 0.11 | 88 | 1015.9 |
| 20260901095349 | 59 | 263 | 0.0 | 0.0 | 0.00 | 0.11 | 0.11 | 88 | 1015.9 |
| 20260901094832 | 59 | 263 | 0.0 | 2.0 | 0.00 | 0.11 | 0.11 | 88 | 1015.9 |
| 20260901094322 | 59 | 263 | 0.0 | 0.0 | 0.00 | 0.11 | 0.11 | 88 | 1015.4 |
| 20260901093207 | 59 | 263 | 0.0 | 0.0 | 0.00 | 0.11 | 0.11 | 88 | 1015.4 |
| 20260901092651 | 59 | 263 | 0.0 | 0.0 | 0.00 | 0.11 | 0.11 | 88 | 1015.3 |
| 20260901091521 | 59 | 263 | 0.0 | 0.0 | 0.00 | 0.11 | 0.11 | 88 | 1015.3 |
| 20260901091015 | 59 | 263 | 0.0 | 5.0 | 0.00 | 0.11 | 0.11 | 88 | 1014.9 |
| 20260901085914 | 59 | 263 | 1.0 | 5.0 | 0.00 | 0.11 | 0.11 | 88 | 1014.9 |
| 20260901085403 | 59 | 263 | 0.0 | 4.0 | 0.00 | 0.11 | 0.11 | 88 | 1014.9 |
| 20260901084852 | 59 | 263 | 0.0 | 3.0 | 0.00 | 0.11 | 0.11 | 88 | 1014.9 |
| 20260901084345 | 59 | 263 | 0.0 | 0.0 | 0.00 | 0.11 | 0.11 | 87 | 1014.8 |
| 20260901083839 | 59 | 263 | 0.0 | 0.0 | 0.00 | 0.11 | 0.11 | 87 | 1014.8 |
| 20260901083322 | 59 | 263 | 1.0 | 4.0 | 0.00 | 0.11 | 0.11 | 87 | 1014.8 |
| 20260901082812 | 59 | 263 | 1.0 | 4.0 | 0.00 | 0.11 | 0.11 | 87 | 1014.8 |
| 20260901082316 | 59 | 263 | 1.0 | 4.0 | 0.00 | 0.11 | 0.11 | 87 | 1014.8 |
| 20260901081821 | 59 | 263 | 1.0 | 4.0 | 0.00 | 0.11 | 0.11 | 87 | 1014.8 |
| 20260901081303 | 59 | 263 | 1.0 | 6.0 | 0.00 | 0.11 | 0.11 | 87 | 1014.7 |
| 20260901080746 | 59 | 263 | 1.0 | 6.0 | 0.00 | 0.11 | 0.11 | 87 | 1014.7 |
| 20260901080243 | 59 | 263 | 1.0 | 6.0 | 0.00 | 0.11 | 0.11 | 87 | 1014.7 |
| 20260901075739 | 59 | 263 | 2.0 | 6.0 | 0.00 | 0.11 | 0.11 | 87 | 1014.4 |
| 20260901075221 | 59 | 263 | 2.0 | 6.0 | 0.00 | 0.11 | 0.11 | 87 | 1014.4 |
| 20260901074057 | 59 | 263 | 2.0 | 8.0 | 0.00 | 0.11 | 0.11 | 87 | 1014.3 |
| 20260901073601 | 59 | 263 | 2.0 | 9.0 | 0.00 | 0.11 | 0.11 | 87 | 1014.3 |
| 20260901073044 | 59 | 263 | 3.0 | 9.0 | 0.00 | 0.11 | 0.11 | 87 | 1014.3 |
| 20260901072528 | 59 | 263 | 3.0 | 10.0 | 0.00 | 0.11 | 0.11 | 86 | 1014.3 |
| 20260901072013 | 59 | 263 | 3.0 | 10.0 | 0.00 | 0.11 | 0.11 | 86 | 1014.3 |
| 20260901071459 | 59 | 263 | 4.0 | 10.0 | 0.00 | 0.11 | 0.11 | 86 | 1014.3 |
| 20260901070958 | 59 | 263 | 4.0 | 12.0 | 0.00 | 0.11 | 0.11 | 86 | 1014.3 |
| 20260901070451 | 59 | 263 | 3.0 | 12.0 | 0.03 | 0.11 | 0.11 | 85 | 1014.3 |
| 20260901065345 | 60 | 263 | 4.0 | 12.0 | 0.12 | 0.10 | 0.11 | 84 | 1014.9 |
| 20260901064205 | 61 | 263 | 2.0 | 5.0 | 0.12 | 0.08 | 0.09 | 82 | 1016.0 |
| 20260901063714 | 61 | 263 | 0.0 | 4.0 | 0.07 | 0.07 | 0.08 | 80 | 1016.0 |
| 20260901063212 | 62 | 263 | 0.0 | 2.0 | 0.14 | 0.07 | 0.07 | 79 | 1016.0 |
| 20260901062718 | 62 | 263 | 0.0 | 2.0 | 0.09 | 0.06 | 0.07 | 78 | 1016.1 |
| 20260901062208 | 62 | 263 | 0.0 | 0.0 | 0.10 | 0.05 | 0.06 | 76 | 1016.1 |
| 20260901061701 | 62 | 263 | 0.0 | 1.0 | 0.10 | 0.04 | 0.04 | 75 | 1016.1 |
| 20260901061200 | 63 | 263 | 0.0 | 1.0 | 0.11 | 0.03 | 0.03 | 74 | 1016.1 |
| 20260901060659 | 63 | 263 | 0.0 | 1.0 | 0.11 | 0.03 | 0.03 | 73 | 1016.1 |
| 20260901060141 | 63 | 263 | 1.0 | 0.0 | 0.13 | 0.02 | 0.02 | 72 | 1016.1 |
| 20260901055638 | 64 | 263 | 3.0 | 9.0 | 0.00 | 0.00 | 0.00 | 71 | 1016.4 |
| 20260901055118 | 64 | 263 | 5.0 | 19.0 | 0.00 | 0.00 | 0.00 | 69 | 1016.4 |
| 20260901053326 | 67 | 263 | 8.0 | 18.0 | 0.00 | 0.00 | 0.00 | 60 | 1015.8 |
| 20260901052815 | 68 | 263 | 6.0 | 18.0 | 0.00 | 0.00 | 0.00 | 57 | 1015.4 |
| 20260901052310 | 68 | 263 | 3.0 | 13.0 | 0.00 | 0.00 | 0.00 | 55 | 1015.4 |
| 20260901051814 | 68 | 263 | 2.0 | 9.0 | 0.00 | 0.00 | 0.00 | 55 | 1015.4 |
| 20260901051306 | 68 | 263 | 3.0 | 9.0 | 0.00 | 0.00 | 0.00 | 54 | 1015.0 |
| 20260901050759 | 68 | 263 | 2.0 | 10.0 | 0.00 | 0.00 | 0.00 | 54 | 1015.0 |
| 20260901050256 | 68 | 263 | 2.0 | 10.0 | 0.00 | 0.00 | 0.00 | 54 | 1015.0 |
| 20260901045806 | 68 | 263 | 2.0 | 14.0 | 0.00 | 0.00 | 0.00 | 54 | 1015.2 |
| 20260901045247 | 68 | 263 | 1.0 | 14.0 | 0.00 | 0.00 | 0.00 | 55 | 1015.2 |
| 20260901044755 | 68 | 263 | 2.0 | 14.0 | 0.00 | 0.00 | 0.00 | 55 | 1015.2 |
| 20260901044258 | 68 | 263 | 2.0 | 14.0 | 0.00 | 0.00 | 0.00 | 54 | 1015.3 |
| 20260901043759 | 69 | 263 | 2.0 | 12.0 | 0.00 | 0.00 | 0.00 | 54 | 1015.3 |
| 20260901043308 | 69 | 263 | 3.0 | 12.0 | 0.00 | 0.00 | 0.00 | 53 | 1015.3 |
| 20260901042132 | 69 | 263 | 3.0 | 12.0 | 0.00 | 0.00 | 0.00 | 52 | 1014.8 |
| 20260901041625 | 69 | 263 | 2.0 | 6.0 | 0.00 | 0.00 | 0.00 | 52 | 1014.8 |
| 20260901041133 | 69 | 263 | 2.0 | 6.0 | 0.00 | 0.00 | 0.00 | 52 | 1015.2 |
| 20260901040613 | 69 | 263 | 1.0 | 9.0 | 0.00 | 0.00 | 0.00 | 53 | 1015.2 |
| 20260901040111 | 69 | 263 | 2.0 | 9.0 | 0.00 | 0.00 | 0.00 | 53 | 1015.2 |
| 20260901035552 | 69 | 263 | 4.0 | 15.0 | 0.00 | 0.00 | 0.00 | 52 | 1015.2 |
| 20260901034428 | 69 | 263 | 4.0 | 15.0 | 0.00 | 0.00 | 0.00 | 52 | 1015.2 |
| 20260901033920 | 69 | 263 | 3.0 | 10.0 | 0.00 | 0.00 | 0.00 | 52 | 1015.4 |
| 20260901033414 | 69 | 263 | 4.0 | 16.0 | 0.00 | 0.00 | 0.00 | 52 | 1015.4 |
| 20260901032915 | 69 | 263 | 4.0 | 16.0 | 0.00 | 0.00 | 0.00 | 51 | 1015.4 |
| 20260901031741 | 69 | 263 | 6.0 | 14.0 | 0.00 | 0.00 | 0.00 | 51 | 1015.5 |
| 20260901031241 | 69 | 263 | 6.0 | 14.0 | 0.00 | 0.00 | 0.00 | 50 | 1016.0 |
| 20260901030724 | 69 | 263 | 5.0 | 18.0 | 0.00 | 0.00 | 0.00 | 50 | 1016.0 |
| 20260901030225 | 69 | 263 | 4.0 | 18.0 | 0.00 | 0.00 | 0.00 | 49 | 1016.0 |
| 20260901025733 | 69 | 263 | 4.0 | 18.0 | 0.00 | 0.00 | 0.00 | 49 | 1016.3 |
| 20260901024616 | 70 | 263 | 5.0 | 14.0 | 0.00 | 0.00 | 0.00 | 47 | 1016.3 |
| 20260901024115 | 71 | 263 | 5.0 | 16.0 | 0.00 | 0.00 | 0.00 | 46 | 1016.2 |
| 20260901023607 | 71 | 263 | 5.0 | 16.0 | 0.00 | 0.00 | 0.00 | 46 | 1016.2 |
| 20260901023109 | 71 | 263 | 5.0 | 17.0 | 0.00 | 0.00 | 0.00 | 46 | 1016.2 |
| 20260901022555 | 71 | 263 | 4.0 | 17.0 | 0.00 | 0.00 | 0.00 | 46 | 1016.3 |
| 20260901022037 | 71 | 263 | 6.0 | 17.0 | 0.00 | 0.00 | 0.00 | 47 | 1016.3 |
| 20260901021518 | 70 | 263 | 6.0 | 17.0 | 0.00 | 0.00 | 0.00 | 47 | 1016.3 |
| 20260901021003 | 70 | 263 | 4.0 | 12.0 | 0.00 | 0.00 | 0.00 | 48 | 1016.9 |
| 20260901020508 | 68 | 263 | 4.0 | 12.0 | 0.00 | 0.00 | 0.00 | 49 | 1016.9 |
| 20260901020003 | 68 | 263 | 3.0 | 11.0 | 0.00 | 0.00 | 0.00 | 50 | 1016.9 |
| 20260901015506 | 68 | 263 | 3.0 | 11.0 | 0.00 | 0.00 | 0.00 | 51 | 1017.0 |
| 20260901015014 | 67 | 263 | 4.0 | 11.0 | 0.00 | 0.00 | 0.00 | 51 | 1017.0 |
| 20260901014504 | 67 | 263 | 4.0 | 11.0 | 0.00 | 0.00 | 0.00 | 51 | 1017.0 |
| 20260901013346 | 67 | 263 | 3.0 | 12.0 | 0.00 | 0.00 | 0.00 | 51 | 1017.3 |
| 20260901012834 | 67 | 263 | 4.0 | 12.0 | 0.00 | 0.00 | 0.00 | 51 | 1016.9 |
| 20260901012334 | 66 | 263 | 5.0 | 15.0 | 0.00 | 0.00 | 0.00 | 51 | 1016.9 |
| 20260901011822 | 66 | 263 | 5.0 | 15.0 | 0.00 | 0.00 | 0.00 | 52 | 1016.9 |
| 20260901011319 | 66 | 263 | 6.0 | 15.0 | 0.00 | 0.00 | 0.00 | 52 | 1017.6 |
| 20260901010208 | 66 | 263 | 4.0 | 13.0 | 0.00 | 0.00 | 0.00 | 51 | 1017.6 |
| 20260901005705 | 66 | 263 | 3.0 | 13.0 | 0.00 | 0.00 | 0.00 | 51 | 1018.0 |
| 20260901005211 | 66 | 263 | 2.0 | 11.0 | 0.00 | 0.00 | 0.00 | 51 | 1018.0 |
| 20260901004710 | 66 | 263 | 3.0 | 11.0 | 0.00 | 0.00 | 0.00 | 51 | 1018.0 |
| 20260901004217 | 66 | 263 | 3.0 | 13.0 | 0.00 | 0.00 | 0.00 | 51 | 1017.6 |
| 20260901003725 | 65 | 263 | 4.0 | 13.0 | 0.00 | 0.00 | 0.00 | 51 | 1017.6 |
| 20260901003218 | 66 | 263 | 4.0 | 13.0 | 0.00 | 0.00 | 0.00 | 51 | 1017.6 |
| 20260901002716 | 66 | 263 | 4.0 | 13.0 | 0.00 | 0.00 | 0.00 | 50 | 1017.8 |
| 20260901002217 | 66 | 263 | 4.0 | 16.0 | 0.00 | 0.00 | 0.00 | 50 | 1017.8 |
| 20260901001715 | 66 | 263 | 3.0 | 16.0 | 0.00 | 0.00 | 0.00 | 50 | 1017.8 |
| 20260901001158 | 66 | 263 | 5.0 | 16.0 | 0.00 | 0.00 | 0.00 | 50 | 1018.0 |
| 20260901000700 | 66 | 263 | 6.0 | 16.0 | 0.00 | 0.00 | 0.00 | 49 | 1018.0 |
| 20260901000204 | 67 | 263 | 4.0 | 15.0 | 0.00 | 0.00 | 0.00 | 48 | 1018.0 |
| 20260831235648 | 67 | 263 | 5.0 | 15.0 | 0.00 | 0.00 | 0.00 | 48 | 1018.0 |
| 20260831235146 | 67 | 263 | 5.0 | 15.0 | 0.00 | 0.00 | 0.00 | 47 | 1018.0 |
| 20260831234635 | 67 | 263 | 5.0 | 14.0 | 0.00 | 0.00 | 0.00 | 48 | 1018.0 |
| 20260831234127 | 67 | 263 | 5.0 | 14.0 | 0.00 | 0.00 | 0.00 | 48 | 1018.3 |
| 20260831233617 | 66 | 263 | 3.0 | 11.0 | 0.00 | 0.00 | 0.00 | 50 | 1018.3 |
| 20260831233118 | 66 | 263 | 3.0 | 11.0 | 0.00 | 0.00 | 0.00 | 50 | 1018.3 |
| 20260831232603 | 65 | 263 | 3.0 | 11.0 | 0.00 | 0.00 | 0.00 | 51 | 1018.5 |
| 20260831232047 | 65 | 263 | 3.0 | 11.0 | 0.00 | 0.00 | 0.00 | 51 | 1018.5 |
| 20260831231547 | 64 | 263 | 3.0 | 10.0 | 0.00 | 0.00 | 0.00 | 52 | 1018.5 |
| 20260831231039 | 64 | 263 | 2.0 | 10.0 | 0.00 | 0.00 | 0.00 | 52 | 1018.5 |
| 20260831230525 | 64 | 263 | 1.0 | 7.0 | 0.00 | 0.00 | 0.00 | 52 | 1018.5 |
| 20260831230031 | 64 | 263 | 2.0 | 7.0 | 0.00 | 0.00 | 0.00 | 52 | 1018.5 |
| 20260831225514 | 64 | 263 | 2.0 | 10.0 | 0.00 | 0.00 | 0.00 | 53 | 1018.2 |
| 20260831225022 | 64 | 263 | 3.0 | 10.0 | 0.00 | 0.00 | 0.00 | 53 | 1018.2 |
| 20260831224523 | 64 | 263 | 3.0 | 11.0 | 0.00 | 0.00 | 0.00 | 53 | 1018.2 |
| 20260831223355 | 63 | 263 | 4.0 | 12.0 | 0.00 | 0.00 | 0.00 | 54 | 1018.5 |
| 20260831222857 | 63 | 263 | 4.0 | 12.0 | 0.00 | 0.00 | 0.00 | 54 | 1018.5 |
| 20260831222358 | 63 | 263 | 3.0 | 12.0 | 0.00 | 0.00 | 0.00 | 54 | 1018.5 |
| 20260831221226 | 63 | 263 | 3.0 | 11.0 | 0.00 | 0.00 | 0.00 | 55 | 1018.7 |
| 20260831220726 | 62 | 263 | 2.0 | 9.0 | 0.00 | 0.00 | 0.00 | 55 | 1018.7 |
| 20260831220215 | 62 | 263 | 2.0 | 5.0 | 0.00 | 0.00 | 0.00 | 56 | 1018.7 |
| 20260831213811 | 60 | 263 | 3.0 | 8.0 | 0.00 | 0.00 | 0.00 | 59 | 1018.5 |
| 20260831213307 | 59 | 263 | 2.0 | 8.0 | 0.00 | 0.00 | 0.00 | 61 | 1018.5 |
| 20260831211518 | 58 | 263 | 3.0 | 8.0 | 0.00 | 0.00 | 0.00 | 62 | 1018.5 |
| 20260831210959 | 58 | 263 | 3.0 | 8.0 | 0.00 | 0.00 | 0.00 | 62 | 1018.6 |
| 20260831210508 | 58 | 263 | 2.0 | 8.0 | 0.00 | 0.00 | 0.00 | 62 | 1018.6 |
| 20260831210009 | 58 | 263 | 2.0 | 9.0 | 0.00 | 0.00 | 0.00 | 62 | 1018.6 |
| 20260831205457 | 58 | 263 | 3.0 | 9.0 | 0.00 | 0.00 | 0.00 | 62 | 1018.6 |
| 20260831204335 | 58 | 263 | 2.0 | 9.0 | 0.00 | 0.00 | 0.00 | 63 | 1018.7 |
| 20260831203839 | 57 | 263 | 2.0 | 7.0 | 0.00 | 0.00 | 0.00 | 63 | 1018.7 |
| 20260831203329 | 57 | 263 | 2.0 | 7.0 | 0.00 | 0.00 | 0.00 | 63 | 1018.7 |
| 20260831202823 | 57 | 263 | 2.0 | 7.0 | 0.00 | 0.00 | 0.00 | 63 | 1018.6 |
| 20260831202332 | 57 | 263 | 2.0 | 6.0 | 0.00 | 0.00 | 0.00 | 63 | 1018.6 |
| 20260831201153 | 57 | 263 | 2.0 | 8.0 | 0.00 | 0.00 | 0.00 | 62 | 1018.8 |
| 20260831200645 | 57 | 263 | 2.0 | 8.0 | 0.00 | 0.00 | 0.00 | 62 | 1018.8 |
| 20260831200129 | 57 | 263 | 2.0 | 8.0 | 0.00 | 0.00 | 0.00 | 62 | 1018.8 |
| 20260831195612 | 58 | 263 | 2.0 | 7.0 | 0.00 | 0.00 | 0.00 | 62 | 1018.9 |
| 20260831195107 | 58 | 263 | 2.0 | 6.0 | 0.00 | 0.00 | 0.00 | 62 | 1018.9 |
| 20260831194549 | 58 | 263 | 2.0 | 6.0 | 0.00 | 0.00 | 0.00 | 62 | 1018.9 |
| 20260831193419 | 58 | 263 | 2.0 | 9.0 | 0.00 | 0.00 | 0.00 | 61 | 1019.0 |
| 20260831192913 | 58 | 263 | 2.0 | 9.0 | 0.00 | 0.00 | 0.00 | 61 | 1019.0 |